Regional Weather Roundup
Issued by NWS Kansas City/Pleasant Hill, MO

Home | Current Version | Previous Version | Text Only | Print | Product List | Glossary On
Versions: 1 2 3 4 5 6 7 8 9 10 11 12 13 14 15 16 17 18 19 20 21 22 23 24 25 26 27 28 29 30 31 32 33 34 35 36 37 38 39 40 41 42 43 44 45 46 47 48 49 50
000
ASUS43 KEAX 300010
RWREAX

WEATHER ROUNDUP FOR EASTERN KANSAS AND NORTHWEST MISSOURI
NATIONAL WEATHER SERVICE KANSAS CITY/PLEASANT HILL MO
700 PM CDT SUN MAY 29 2016

KSZ040-057-103>105-MOZ028-029-037-043-300100-
...KANSAS CITY METROPOLITAN AREA...

CITY           SKY/WX    TMP DP  RH WIND       PRES   REMARKS
K.C. INTL      CLOUDY    77  66  68 S6        30.04S
6HR MIN TEMP:  77; 6HR MAX TEMP:  85;

K.C. DOWNTOWN  MOSUNNY   81  59  47 S7        30.02S
6HR MIN TEMP:  81; 6HR MAX TEMP:  87;

LEES SUMMIT    MOSUNNY   82  57  42 SW9       30.04F
6HR MIN TEMP:  81; 6HR MAX TEMP:  86;

OLATHE - IXD   SUNNY     79  61  53 S5        30.05S
6HR MIN TEMP:  78; 6HR MAX TEMP:  85;

OLATHE - OJC   SUNNY     79  60  52 S5        30.05S
6HR MIN TEMP:  78; 6HR MAX TEMP:  83;

LAWRENCE       MOSUNNY   79  62  56 S7        30.03S

$$

MOZ001>008-011>017-020>025-030>033-038>040-044>046-053-054-300100-
...NORTHERN AND CENTRAL MISSOURI...

CITY           SKY/WX    TMP DP  RH WIND       PRES   REMARKS
ST. JOSEPH     CLOUDY    82  61  48 S10       30.01S
6HR MIN TEMP:  82; 6HR MAX TEMP:  87;

MOSBY          CLOUDY    81  63  54 CALM      30.03R
WARRENSBURG    MOSUNNY   82  59  44 CALM      30.04R
WHITEMAN AFB   CLOUDY    82  61  47 SW3       30.04F
6HR MIN TEMP:  82; 6HR MAX TEMP:  85;

CLINTON        MOSUNNY   82  66  57 CALM      30.05S
SEDALIA        CLOUDY    82  63  52 S7        30.05F
6HR MIN TEMP:  82; 6HR MAX TEMP:  86;

WARSAW         NOT AVBL
CHILLICOTHE      N/A     81  68  64 CALM      30.02F
6HR MIN TEMP:  81; 6HR MAX TEMP:  87;

KIRKSVILLE     MOSUNNY   82  63  52 VRB3      30.03F
6HR MIN TEMP:  80; 6HR MAX TEMP:  84;


$$

MOZ041-047>049-056>058-063>065-088>090-097-300100-
...EASTERN AND SOUTHERN MISSOURI...

CITY           SKY/WX    TMP DP  RH WIND       PRES   REMARKS
ST. LOUIS INTL PTSUNNY   83  58  42 W5        30.05S
6HR MIN TEMP:  83; 6HR MAX TEMP:  88;

SPIRIT OF STL  MOSUNNY   83  61  47 W6        30.03S
COLUMBIA       CLOUDY    83  60  45 SW5       30.05F
JEFFERSON CITY SUNNY     82  60  47 S3        30.04F
ROLLA          CLOUDY    80  59  48 CALM      30.06F
SPRINGFIELD    CLOUDY    82  62  50 NE6       30.07F
BRANSON        PTSUNNY   77  64  65 SE5       30.09F
JOPLIN         CLOUDY    80  65  59 CALM      30.06S
WEST PLAINS    MOSUNNY   82  59  45 CALM      30.10F

$$

IAZ060-094-KSZ022-034>040-054-083-096-NEZ052-066-093-300100-
...KANSAS...SOUTHEAST NEBRASKA AND IOWA...

CITY           SKY/WX    TMP DP  RH WIND       PRES   REMARKS
TOPEKA         MOSUNNY   80  61  52 S5        30.02S
6HR MIN TEMP:  80; 6HR MAX TEMP:  87; 6HR PCP: TRACE;

MANHATTAN      CLOUDY    71  65  81 CALM      30.02S
EMPORIA        CLOUDY    77  66  68 S12       30.04F
CHANUTE        MOSUNNY   79  69  71 CALM      30.05S
WICHITA        PTSUNNY   76  55  48 SE9       30.04F
OMAHA          MOSUNNY   85  57  38 NE5       29.97F
LINCOLN        CLOUDY    81  62  52 S5        29.99S
FALLS CITY     CLOUDY    83  58  42 SW8       30.00R
LAMONI           N/A     81  63  54 SW9       30.01F
DES MOINES     MOSUNNY   82  52  35 W6        29.99F

$$




USA.gov is the U.S. government's official web portal to all federal, state and local government web resources and services.